Salida, CO

2:56 PM MDT on August 29, 2016 (GMT -0600)
Salida

Weather History for KANK - January, 2013

Change the Weather History Date:

Friday, January 18, 2013

  Actual Average (KGUC) Record (KGUC)
Temperature  
Mean Temperature 32 °F -  
Max Temperature 46 °F 23 °F 37 °F (1998)
Min Temperature 19 °F 0 °F -32 °F (2008)
Degree Days  
Heating Degree Days 32    
Moisture  
Dew Point 8 °F    
Average Humidity 39    
Maximum Humidity 61    
Minimum Humidity 20    
Precipitation  
Precipitation 0.00 in - - ()
Sea Level Pressure  
Sea Level Pressure 30.34 in    
Wind  
Wind Speed 12 mph (WNW)    
Max Wind Speed 21 mph    
Max Gust Speed 28 mph    
Visibility 10 miles    
Events      
Averages and records for this station are not official NWS values.
T = Trace of Precipitation, MM = Missing Value Source: NWS Daily Summary

Daily Weather History Graph

Daily Weather History Graph

Search for Another Location

Airport or City:

Trip Planner

Search our weather history database for the weather conditions in past years. The results will help you decide how hot, cold, wet, or windy it might be!

Date:

Astronomy

Jan. 18, 2013 Rise Set
Actual Time 7:18 AM MST 5:10 PM MST
Civil Twilight 6:50 AM MST 5:39 PM MST
Nautical Twilight 6:17 AM MST 6:12 PM MST
Astronomical Twilight 5:46 AM MST 6:43 PM MST
Moon 11:04 AM MST (1/18) No Moon Set
Length of Visible Light 10h 49m
Length of Day
9h 51m
Waxing Crescent, 48% of the Moon is Illuminated
Jan 18
Waxing Crescent
Jan 18
First Quarter
Jan 26
Full
Feb 3
Last Quarter
Feb 10
New

Hourly Weather History & Observations

Time (MST) Temp. Windchill Dew Point Humidity Pressure Visibility Wind Dir Wind Speed Gust Speed Precip Events Conditions
12:15 AM 26.1 °F 14.0 °F 13.8 °F 60% 30.41 in 10.0 mi NNW 15.0 mph 19.6 mph N/A   Clear
12:35 AM 26.2 °F 14.2 °F 13.6 °F 59% 30.41 in 10.0 mi NNW 15.0 mph - N/A   Clear
12:55 AM 25.0 °F 14.2 °F 13.1 °F 61% 30.40 in 10.0 mi NNW 11.5 mph - N/A   Clear
1:15 AM 24.4 °F 13.0 °F 12.2 °F 60% 30.40 in 10.0 mi NNW 12.7 mph 17.3 mph N/A   Clear
1:35 AM 24.1 °F 13.7 °F 12.0 °F 60% 30.40 in 10.0 mi NNW 10.4 mph - N/A   Clear
1:55 AM 24.8 °F 15.3 °F 12.2 °F 59% 30.40 in 10.0 mi NNW 9.2 mph - N/A   Clear
2:15 AM 24.4 °F 12.4 °F 11.7 °F 58% 30.40 in 10.0 mi NNW 13.8 mph 18.4 mph N/A   Clear
2:35 AM 24.6 °F 13.8 °F 11.1 °F 57% 30.40 in 10.0 mi NNW 11.5 mph - N/A   Clear
2:55 AM 23.4 °F 10.6 °F 10.6 °F 58% 30.40 in 10.0 mi NNW 15.0 mph - N/A   Clear
3:15 AM 23.2 °F 10.8 °F 10.6 °F 59% 30.39 in 10.0 mi NNW 13.8 mph - N/A   Clear
3:55 AM 23.0 °F 11.1 °F 9.9 °F 57% 30.39 in 10.0 mi NNW 12.7 mph - N/A   Clear
4:15 AM 22.6 °F 10.1 °F 8.8 °F 55% 30.39 in 10.0 mi NNW 13.8 mph - N/A   Clear
4:35 AM 21.9 °F 9.8 °F 8.4 °F 56% 30.38 in 10.0 mi NNW 12.7 mph - N/A   Clear
4:55 AM 21.4 °F 9.7 °F 8.2 °F 57% 30.38 in 10.0 mi NNW 11.5 mph 20.7 mph N/A   Clear
5:15 AM 23.0 °F 10.1 °F 8.2 °F 53% 30.38 in 10.0 mi NW 15.0 mph - N/A   Clear
5:35 AM 22.5 °F 9.4 °F 6.8 °F 51% 30.38 in 10.0 mi NNW 15.0 mph 20.7 mph N/A   Clear
5:55 AM 22.8 °F 12.2 °F 6.6 °F 50% 30.38 in 10.0 mi NW 10.4 mph - N/A   Clear
6:15 AM 23.0 °F 12.4 °F 7.7 °F 52% 30.37 in 10.0 mi NNW 10.4 mph 18.4 mph N/A   Clear
6:35 AM 20.8 °F 6.8 °F 7.0 °F 55% 30.37 in 10.0 mi NNW 16.1 mph 19.6 mph N/A   Clear
6:55 AM 19.2 °F 3.0 °F 5.7 °F 56% 30.37 in 10.0 mi NNW 20.7 mph - N/A   Clear
7:35 AM 19.2 °F 5.8 °F 6.8 °F 59% 30.38 in 10.0 mi NNW 13.8 mph - N/A   Clear
7:55 AM 20.7 °F 7.6 °F 5.5 °F 52% 30.39 in 10.0 mi NNW 13.8 mph 20.7 mph N/A   Clear
8:15 AM 22.6 °F 15.3 °F 5.7 °F 48% 30.40 in 10.0 mi NW 5.8 mph - N/A   Clear
8:35 AM 22.6 °F 14.3 °F 5.4 °F 48% 30.41 in 10.0 mi NNW 6.9 mph - N/A   Clear
9:15 AM 23.7 °F 17.8 °F 6.6 °F 48% 30.40 in 10.0 mi NNW 4.6 mph - N/A   Clear
9:35 AM 26.4 °F 17.3 °F 7.5 °F 45% 30.40 in 10.0 mi NNW 9.2 mph - N/A   Clear
9:55 AM 30.4 °F 21.5 °F 7.0 °F 37% 30.41 in 10.0 mi NNW 10.4 mph - N/A   Clear
10:15 AM 33.4 °F 27.3 °F 7.3 °F 34% 30.40 in 10.0 mi NNW 6.9 mph - N/A   Clear
10:35 AM 37.6 °F 33.1 °F 10.0 °F 32% 30.38 in 10.0 mi NNW 5.8 mph - N/A   Clear
10:55 AM 40.6 °F 35.4 °F 10.8 °F 29% 30.38 in 10.0 mi WSW 8.1 mph - N/A   Clear
11:15 AM 43.0 °F 37.2 °F 9.7 °F 26% 30.36 in 10.0 mi SW 10.4 mph 19.6 mph N/A   Clear
11:35 AM 44.2 °F 38.0 °F 9.7 °F 24% 30.35 in 10.0 mi WSW 12.7 mph 20.7 mph N/A   Clear
11:55 AM 45.1 °F 39.9 °F 9.0 °F 23% 30.33 in 10.0 mi SW 10.4 mph 19.6 mph N/A   Clear
12:15 PM 45.3 °F 38.7 °F 9.1 °F 23% 30.32 in 10.0 mi SW 15.0 mph 19.6 mph N/A   Clear
12:35 PM 45.5 °F 38.6 °F 8.8 °F 22% 30.31 in 10.0 mi SSW 16.1 mph 23.0 mph N/A   Clear
12:55 PM 45.9 °F 40.4 °F 8.4 °F 22% 30.30 in 10.0 mi SSW 11.5 mph 19.6 mph N/A   Clear
1:15 PM 46.4 °F 40.4 °F 7.3 °F 20% 30.29 in 10.0 mi SW 13.8 mph 23.0 mph N/A   Clear
1:35 PM 45.1 °F 38.1 °F 8.2 °F 22% 30.29 in 10.0 mi SSW 16.1 mph 27.6 mph N/A   Clear
1:55 PM 45.7 °F 38.0 °F 8.2 °F 22% 30.28 in 10.0 mi SSW 19.6 mph 27.6 mph N/A   Clear
2:15 PM 45.9 °F 39.7 °F 7.3 °F 21% 30.27 in 10.0 mi SW 13.8 mph 26.5 mph N/A   Clear
2:35 PM 46.0 °F 39.0 °F 6.8 °F 20% 30.26 in 10.0 mi SW 17.3 mph 26.5 mph N/A   Clear
2:55 PM 46.4 °F 39.2 °F 7.3 °F 20% 30.27 in 10.0 mi SW 18.4 mph 24.2 mph N/A   Clear
3:15 PM 45.7 °F 39.1 °F 6.6 °F 20% 30.26 in 10.0 mi WSW 15.0 mph 26.5 mph N/A   Clear
3:35 PM 45.3 °F 38.4 °F 6.8 °F 21% 30.27 in 10.0 mi SW 16.1 mph 23.0 mph N/A   Clear
3:55 PM 44.6 °F 37.8 °F 6.4 °F 21% 30.27 in 10.0 mi SW 15.0 mph 23.0 mph N/A   Clear
4:15 PM 43.5 °F 36.1 °F 5.9 °F 21% 30.27 in 10.0 mi WSW 16.1 mph 26.5 mph N/A   Clear
4:35 PM 42.1 °F 33.6 °F 6.3 °F 23% 30.27 in 10.0 mi SW 18.4 mph 23.0 mph N/A   Clear
4:55 PM 39.7 °F 31.2 °F 6.6 °F 25% 30.27 in 10.0 mi SW 16.1 mph 21.9 mph N/A   Clear
5:15 PM 39.0 °F 31.0 °F 6.6 °F 26% 30.28 in 10.0 mi SW 13.8 mph 24.2 mph N/A   Clear
5:35 PM 38.3 °F 30.1 °F 6.4 °F 27% 30.29 in 10.0 mi SW 13.8 mph 19.6 mph N/A   Clear
5:55 PM 36.7 °F 28.9 °F 5.4 °F 27% 30.29 in 10.0 mi SW 11.5 mph 17.3 mph N/A   Clear
6:15 PM 36.7 °F 29.4 °F 6.1 °F 28% 30.30 in 10.0 mi SW 10.4 mph 23.0 mph N/A   Clear
6:35 PM 36.7 °F 27.2 °F 7.2 °F 29% 30.30 in 10.0 mi WSW 16.1 mph - N/A   Clear
6:55 PM 35.8 °F 28.8 °F 5.7 °F 28% 30.30 in 10.0 mi West 9.2 mph - N/A   Clear
7:35 PM 35.1 °F 28.6 °F 6.6 °F 31% 30.31 in 10.0 mi WSW 8.1 mph - N/A   Clear
7:55 PM 34.9 °F 27.1 °F 6.6 °F 31% 30.31 in 10.0 mi WSW 10.4 mph - N/A   Clear
8:35 PM 33.1 °F 24.4 °F 6.4 °F 33% 30.32 in 10.0 mi West 11.5 mph 17.3 mph N/A   Clear
8:55 PM 34.0 °F 28.0 °F 7.5 °F 33% 30.32 in 10.0 mi West 6.9 mph - N/A   Clear
9:15 PM 31.6 °F 26.0 °F 7.5 °F 36% 30.32 in 10.0 mi WSW 5.8 mph - N/A   Clear
9:35 PM 29.1 °F 24.1 °F 8.8 °F 43% 30.31 in 10.0 mi West 4.6 mph - N/A   Clear
9:55 PM 27.7 °F 18.8 °F 9.3 °F 46% 30.31 in 10.0 mi NW 9.2 mph - N/A   Clear
10:15 PM 28.6 °F 20.7 °F 7.3 °F 41% 30.31 in 10.0 mi WNW 8.1 mph - N/A   Clear
10:35 PM 29.5 °F 22.5 °F 6.4 °F 38% 30.32 in 10.0 mi West 6.9 mph - N/A   Clear
10:55 PM 29.3 °F 20.8 °F 6.8 °F 39% 30.32 in 10.0 mi West 9.2 mph - N/A   Clear
11:15 PM 27.1 °F 19.7 °F 7.0 °F 43% 30.32 in 10.0 mi WNW 6.9 mph - N/A   Clear
11:35 PM 27.5 °F 20.2 °F 7.7 °F 43% 30.32 in 10.0 mi West 6.9 mph - N/A   Clear
11:55 PM 26.4 °F 18.9 °F 5.5 °F 41% 30.32 in 10.0 mi NNW 6.9 mph - N/A   Clear